Location: Lafig�re
(44.4503°N, 4.0357°E)
Time: 02:07:36
(UTC+00:00)

Transit 4A - Pass Details

Date: 24 January 2021
Orbit: 866 x 979 km, 66.8° (Epoch: 24 February)

Event Time Altitude Azimuth Distance (km) Brightness Sun altitude
Rises 21:13:28 0° 273° (W) 3,678 11.6 -47.7°
Reaches altitude 10° 21:17:15 10° 295° (WNW) 2,728 10.8 -48.3°
Enters shadow 21:18:41 13° 308° (NW) 2,488 10.6 -48.6°
Maximum altitude 21:20:57 16° 331° (NNW) 2,329 - -48.9°
Drops below altitude 10° 21:24:39 10° 7° (N) 2,709 - -49.5°
Sets 21:28:24 0° 29° (NNE) 3,639 - -50.1°
